Weather History for LICZ - December, 2012

Change the Weather History Date:

Tuesday, December 25, 2012

  Actual Average Record
Temperature  
Mean Temperature 51 °F -  
Max Temperature 65 °F 60 °F 74 °F (2014)
Min Temperature 37 °F 42 °F 32 °F (2005)
Degree Days  
Heating Degree Days 14    
Growing Degree Days 1 (Base 50)    
Moisture  
Dew Point 47 °F    
Average Humidity 88    
Maximum Humidity 100    
Minimum Humidity 46    
Precipitation  
Precipitation 0.00 in 0.08 in - ()
Sea Level Pressure  
Sea Level Pressure 30.23 in    
Wind  
Wind Speed 6 mph ()    
Max Wind Speed 14 mph    
Max Gust Speed -    
Visibility 6.1 miles    
Events      
Averages and records for this station are not official NWS values.
T = Trace of Precipitation, MM = Missing Value Source: Averaged Metar Reports

Daily Weather History Graph

Daily Weather History Graph

Search for Another Location

Airport or City:

Trip Planner

Search our weather history database for the weather conditions in past years. The results will help you decide how hot, cold, wet, or windy it might be!

Date:

Astronomy

Dec. 25, 2012 Rise Set
Actual Time 7:12 AM CET 4:48 PM CET
Civil Twilight 6:43 AM CET 5:17 PM CET
Nautical Twilight 6:10 AM CET 5:50 PM CET
Astronomical Twilight 5:39 AM CET 6:22 PM CET
Moon 2:43 PM CET (12/25) 4:30 AM CET (12/25)
Length of Visible Light 10h 33m
Length of Day
9h 35m
Waxing Gibbous, 92% of the Moon is Illuminated
Dec 25
Waxing Gibbous
Dec 28
Full
Jan 5
Last Quarter
Jan 11
New
Jan 19
First Quarter

Hourly Weather History & Observations

Time (CET) Temp. Windchill Dew Point Humidity Pressure Visibility Wind Dir Wind Speed Gust Speed Precip Events Conditions
12:55 AM 41.0 °F 38.0 °F 41.0 °F 100% 30.27 in - WNW 4.6 mph - N/A   Clear
1:00 AM 42 °F - 42 °F 99% 30.30 in 6 mi WNW 4.6 mph - -  
1:55 AM 42.8 °F 40.1 °F 42.8 °F 100% 30.27 in - WNW 4.6 mph - N/A   Clear
2:55 AM 41.0 °F 38.0 °F 41.0 °F 100% 30.27 in - West 4.6 mph - N/A   Clear
3:55 AM 39.2 °F 35.0 °F 39.2 °F 100% 30.24 in - West 5.8 mph - N/A   Clear
4:00 AM 40 °F - 40 °F 100% 30.27 in 6 mi West 5.8 mph - -  
4:55 AM 39.2 °F 35.0 °F 39.2 °F 100% 30.24 in - West 5.8 mph - N/A   Clear
5:55 AM 39.2 °F 34.2 °F 39.2 °F 100% 30.24 in - West 6.9 mph - N/A   Clear
6:55 AM 37.4 °F 32.1 °F 37.4 °F 100% 30.24 in - WNW 6.9 mph - N/A   Clear
7:00 AM 38 °F - 38 °F 99% 30.27 in 6 mi WNW 6.9 mph - -  
7:55 AM 39.2 °F 35.9 °F 37.4 °F 93% 30.27 in 5.6 mi West 4.6 mph - N/A   Partly Cloudy
8:55 AM 44.6 °F 42.2 °F 44.6 °F 100% 30.27 in - West 4.6 mph - N/A   Clear
9:55 AM 51.8 °F - 48.2 °F 88% 30.27 in - WNW 3.5 mph - N/A   Clear
10:00 AM 53 °F - 48 °F 78% 30.30 in 6 mi WNW 3.5 mph - -  
10:55 AM 59.0 °F - 50.0 °F 72% 30.24 in 6.2 mi West 4.6 mph - N/A   Partly Cloudy
11:55 AM 62.6 °F - 53.6 °F 72% 30.27 in 6.2 mi West 9.2 mph - N/A   Partly Cloudy
12:55 PM 64.4 °F - 53.6 °F 68% 30.24 in 6.2 mi SSW 10.4 mph - N/A   Partly Cloudy
1:00 PM 65 °F - 54 °F 60% 30.24 in 6 mi SSW 10.4 mph - -   Scattered Clouds
1:55 PM 64.4 °F - 51.8 °F 64% 30.21 in 6.2 mi West 13.8 mph - N/A   Partly Cloudy
2:55 PM 64.4 °F - 48.2 °F 56% 30.18 in 6.2 mi West 9.2 mph - N/A   Partly Cloudy
3:55 PM 64.4 °F - 50.0 °F 59% 30.18 in 6.2 mi West 10.4 mph - N/A   Partly Cloudy
4:00 PM 65 °F - 49 °F 46% 30.20 in 6 mi West 10.4 mph - -   Scattered Clouds
4:55 PM 59.0 °F - 51.8 °F 77% 30.18 in 6.2 mi West 6.9 mph - N/A   Partly Cloudy
5:55 PM 57.2 °F - 51.8 °F 82% 30.18 in 6.2 mi West 4.6 mph - N/A   Partly Cloudy
6:55 PM 53.6 °F - 53.6 °F 100% 30.18 in 6.2 mi West 6.9 mph - N/A   Partly Cloudy
7:00 PM 54 °F - 54 °F 100% 30.21 in 6 mi West 6.9 mph - -   Scattered Clouds
7:55 PM 50.0 °F - 50.0 °F 100% 30.21 in 6.2 mi West 8.1 mph - N/A   Partly Cloudy
8:55 PM 50.0 °F - 50.0 °F 100% 30.21 in 6.2 mi WNW 5.8 mph - N/A   Partly Cloudy
9:55 PM 48.2 °F - 48.2 °F 100% 30.21 in 6.2 mi WNW 6.9 mph - N/A   Partly Cloudy
10:00 PM 48 °F - 48 °F 99% 30.23 in 6 mi WNW 6.9 mph - -   Scattered Clouds
10:55 PM 46.4 °F 41.5 °F 46.4 °F 100% 30.21 in 6.2 mi NW 10.4 mph - N/A   Partly Cloudy
11:55 PM 46.4 °F 41.9 °F 46.4 °F 100% 30.18 in 6.2 mi WNW 9.2 mph - N/A   Partly Cloudy